EW5186 Weather Reports


time (UTC)temp
C
wind
direction
speed
KPH
gust
KPH
rain 1hr
cm
rain 24hr
cm
rain mn
cm
humidity
%
barometer
mb
20260506131521 17 266 3.2 16.1 0.00 0.00 0.00 80 1011.4
20260506124556 16 179 3.2 14.5 0.00 0.00 0.00 81 1011.7
20260506123056 16 120 3.2 12.9 0.00 0.00 0.00 80 1012.2
20260506121555 16 101 1.6 12.9 0.00 0.00 0.00 83 1012.1
20260506120050 15 69 1.6 11.3 0.00 0.00 0.00 85 1012.1
20260506114550 15 98 3.2 9.7 0.00 0.00 0.00 85 1012.1
20260506113048 14 70 0.0 11.3 0.00 0.00 0.00 87 1012.0
20260506111548 14 171 0.0 4.8 0.00 0.00 0.00 87 1012.2
20260506110035 13 182 1.6 6.4 0.00 0.00 0.00 89 1012.3
20260506104535 13 77 0.0 8.0 0.00 0.00 0.00 90 1012.1
20260506103033 12 100 0.0 4.8 0.00 0.00 0.00 90 1012.2
20260506101532 12 234 0.0 8.0 0.00 0.00 0.00 91 1012.0
20260506100036 12 250 0.0 9.7 0.00 0.00 0.00 90 1011.9
20260506094530 12 141 0.0 6.4 0.00 0.00 0.00 89 1011.9
20260506093029 12 48 0.0 8.0 0.00 0.00 0.00 89 1011.9
20260506091527 12 174 0.0 6.4 0.00 0.00 0.00 89 1012.0
20260506090021 13 134 0.0 8.0 0.00 0.00 0.00 88 1012.1
20260506084513 13 154 1.6 8.0 0.00 0.00 0.00 88 1012.1
20260506083012 13 127 0.0 8.0 0.00 0.00 0.00 88 1012.2
20260506081510 13 129 1.6 6.4 0.00 0.00 0.00 88 1012.2
20260506073007 13 252 0.0 8.0 0.00 0.00 0.00 86 1012.3
20260506071505 13 99 0.0 3.2 0.00 0.00 0.00 86 1012.4
20260506061525 14 163 3.2 11.3 0.00 0.00 0.00 84 1012.3
20260506044600 15 129 1.6 11.3 0.00 0.00 0.00 81 1012.7
20260506043100 15 51 1.6 17.7 0.00 0.00 0.00 80 1012.8
20260506041558 15 87 1.6 14.5 0.00 0.00 0.00 80 1012.9
20260506040036 15 65 1.6 14.5 0.00 0.00 0.00 80 1012.8
20260506034545 15 67 4.8 19.3 0.00 0.00 0.00 80 1012.8
20260506033018 15 42 3.2 14.5 0.00 0.00 0.00 79 1012.9
20260506031518 15 110 1.6 12.9 0.00 0.00 0.00 78 1012.6
20260506030053 16 29 3.2 14.5 0.00 0.00 0.00 76 1012.8
20260506024612 16 214 4.8 17.7 0.00 0.00 0.00 75 1012.7
20260506023035 16 88 6.4 14.5 0.00 0.00 0.00 74 1012.8
20260506021534 16 130 3.2 19.3 0.00 0.00 0.00 74 1012.5
20260506020015 16 184 1.6 8.0 0.00 0.00 0.00 74 1012.5
20260506014515 16 108 3.2 12.9 0.00 0.00 0.00 74 1012.4
20260506013109 16 169 0.0 11.3 0.00 0.00 0.00 74 1012.2
20260506011656 16 169 4.8 12.9 0.00 0.00 0.00 74 1012.2
20260506010039 16 143 0.0 9.7 0.00 0.00 0.00 73 1011.9
20260506004538 16 40 3.2 12.9 0.00 0.00 0.00 73 1011.8
20260506003028 16 135 0.0 8.0 0.00 0.00 0.00 73 1011.6
20260506001526 16 171 4.8 16.1 0.00 0.00 0.00 71 1011.3
20260506000024 17 97 3.2 11.3 0.00 0.00 0.00 70 1011.2
20260505234532 17 126 4.8 14.5 0.00 0.00 0.00 69 1011.0
20260505233023 17 152 1.6 9.7 0.00 0.00 0.00 69 1010.9
20260505231523 18 233 1.6 14.5 0.00 0.00 0.00 68 1010.7
20260505230038 18 160 0.0 16.1 0.00 0.00 0.00 67 1010.4
20260505224522 18 77 3.2 16.1 0.00 0.00 0.00 66 1010.6
20260505223010 20 150 3.2 12.9 0.00 0.00 0.00 64 1010.6
20260505221508 20 23 3.2 9.7 0.00 0.00 0.00 63 1010.4
20260505220007 20 149 1.6 12.9 0.00 0.00 0.00 63 1010.3
20260505214507 21 146 3.2 17.7 0.00 0.00 0.00 64 1010.3
20260505213005 21 129 1.6 12.9 0.00 0.00 0.00 62 1010.2
20260505211505 21 130 1.6 12.9 0.00 0.00 0.00 65 1010.2
20260505210004 21 248 3.2 11.3 0.00 0.00 0.00 62 1010.2
20260505204502 21 152 4.8 14.5 0.00 0.00 0.00 62 1010.1
20260505203116 22 293 1.6 19.3 0.00 0.00 0.00 60 1010.0
20260505201557 22 71 1.6 14.5 0.00 0.00 0.00 63 1010.1
20260505200044 22 103 3.2 16.1 0.00 0.00 0.00 60 1010.4
20260505194550 22 125 4.8 17.7 0.00 0.00 0.00 62 1010.3
20260505193040 22 126 4.8 17.7 0.00 0.00 0.00 60 1010.5
20260505191539 22 96 0.0 14.5 0.00 0.00 0.00 60 1010.6
20260505190038 22 222 3.2 20.9 0.00 0.00 0.00 61 1010.8
20260505184538 22 169 6.4 14.5 0.00 0.00 0.00 60 1010.9
20260505183037 22 27 0.0 22.5 0.00 0.00 0.00 63 1010.8
20260505181536 23 129 1.6 19.3 0.00 0.00 0.00 60 1010.8
20260505180034 23 136 4.8 14.5 0.00 0.00 0.00 58 1010.8
20260505174531 23 230 1.6 12.9 0.00 0.00 0.00 62 1010.9
20260505173040 22 254 4.8 20.9 0.00 0.00 0.00 60 1011.2
20260505171510 22 136 4.8 14.5 0.00 0.00 0.00 59 1011.1
20260505170013 22 93 4.8 14.5 0.00 0.00 0.00 64 1011.1
20260505164601 22 103 3.2 14.5 0.00 0.00 0.00 61 1011.3
20260505163059 22 104 3.2 12.9 0.00 0.00 0.00 61 1011.8
20260505161550 21 125 4.8 16.1 0.00 0.00 0.00 63 1012.1
20260505153105 21 271 4.8 19.3 0.00 0.00 0.00 64 1012.6
20260505151554 21 124 3.2 16.1 0.00 0.00 0.00 62 1012.8
20260505140107 18 291 1.6 11.3 0.00 0.00 0.00 71 1012.4